Regional Weather Roundup
Issued by NWS Jackson, KY

Home | Current Version | Previous Version | Graphics & Text | Print | Product List | Glossary On
Versions: 1 2 3 4 5 6 7 8 9 10 11 12 13 14 15 16 17 18 19 20 21 22 23 24 25 26 27 28 29 30 31 32 33 34 35 36 37 38 39 40 41 42 43 44 45 46 47 48 49 50
000
ASUS43 KJKL 091210
RWRJKL

EAST KENTUCKY HOURLY WEATHER ROUNDUP
NATIONAL WEATHER SERVICE JACKSON KY
700 AM EST TUE FEB 09 2016

NOTE: "FAIR" INDICATES FEW OR NO CLOUDS BELOW 12,000 FEET WITH
NO SIGNIFICANT WEATHER AND/OR OBSTRUCTIONS TO VISIBILITY.

* THESE REPORTS ARE NOT UNDER NWS QUALITY CONTROL AND MAY NOT
  REPORT WEATHER SUCH AS PRECIPITATION AND FOG.

KYZ079-080-083-085-087-088-110-112-115-119-120-091300
...EASTERN KENTUCKY...

CITY           SKY/WX    TMP DP  RH WIND       PRES   REMARKS
JACKSON        LGT SNOW  20  15  81 W7        29.74R WCI  11
6HR MIN TEMP:  20; 6HR MAX TEMP:  26; 6HR PCP: TRACE;

LONDON         LGT SNOW  20  14  77 W9        29.78R WCI   9
6HR MIN TEMP:  20; 6HR MAX TEMP:  26; 6HR PCP: TRACE;

SOMERSET*      CLOUDY    21  14  73 W9        29.84R WCI  11
MONTICELLO*    FLURRIES  21  15  78 W8G20     29.84R WCI  11
6HR MIN TEMP:  21; 6HR MAX TEMP:  23; 6HR PCP: TRACE;

WILLIAMSBURG*  CLOUDY    21  18  86 CALM      29.80R
MIDDLESBORO*   FLURRIES  23  16  76 W9G17     29.80R WCI  13
6HR MIN TEMP:  22; 6HR MAX TEMP:  29;

HARLAN APT*    CLOUDY    21  19  93 SW6       29.74R WCI  14
BLACK MTN*       N/A     12  12 100 S1          N/A
BIG SANDY*     FLURRIES  23  19  82 W6        29.73R WCI  16
6HR MIN TEMP:  23; 6HR MAX TEMP:  29;

MOREHEAD APT*  CLOUDY    19  12  73 SW8       29.77R WCI   9
$$

KYZ035-036-041-042-044-050-067-078-099-091300
...CENTRAL KENTUCKY...

CITY           SKY/WX    TMP DP  RH WIND       PRES   REMARKS
MT STERLING*   CLOUDY    21  14  73 W9        29.78S WCI  11
DANVILLE*      CLOUDY    21  18  86 W6        29.81R WCI  14
RICHMOND*      CLOUDY    19  16  86 W7        29.78S WCI  10
LEXINGTON      CLOUDY    20  14  77 W10       29.78R WCI   9
6HR MIN TEMP:  19; 6HR MAX TEMP:  22; 6HR PCP: TRACE;

FRANKFORT      CLOUDY    20  14  77 W6        29.78R WCI  12
6HR MIN TEMP:  20; 6HR MAX TEMP:  21; 6HR PCP: TRACE;

$$

KYZ091>093-OHZ055-061-077-WVZ005-015-034-035-042-091300
...SOUTHERN OHIO/WEST VIRGINIA...

CITY           SKY/WX    TMP DP  RH WIND       PRES   REMARKS
COVINGTON      LGT SNOW  20  17  88 SW7       29.73R FOG     WCI  11
COLUMBUS       LGT SNOW  23  20  88 SW12      29.65R FOG     WCI  12
DAYTON         LGT SNOW  22  20  92 W13       29.68R FOG     WCI  10
WILMINGTON     LGT SNOW  20  17  88 W15       29.68R VSB 1   WCI   6
HUNTINGTON     FLURRIES  24  17  74 W7        29.73R WCI  16
CHARLESTON     FLURRIES  26  20  77 NW10G16   29.69R WCI  16
PINEVILLE*     LGT SNOW  25  21  83 MISG      29.70R VSB 1
BECKLEY        LGT SNOW  21  17  84 W7        29.60R FOG     WCI  12
$$

VAZ002-007-008-TNZ017-027-036-066-071-091300
...SOUTHWEST VIRGINIA/EAST TENNESSEE...

CITY           SKY/WX    TMP DP  RH WIND       PRES   REMARKS
BRISTOL        LGT SNOW  26  23  88 S6        29.71R FOG     WCI  19
KNOXVILLE      CLOUDY    27  14  58 W14       29.81R WCI  16
OAK RIDGE      CLOUDY    26  15  63 W10       29.83R WCI  16
CROSSVILLE     FLURRIES  20  14  77 NW6       29.78R WCI  12
NASHVILLE      FLURRIES  26  19  74 N5        29.88R WCI  20
$$

...KEY TO REMARKS...
VSB - VISIBILITY IN MILES
WCI - WIND CHILL INDEX
HX  - HEAT INDEX

$$



USA.gov is the U.S. government's official web portal to all federal, state and local government web resources and services.